This is the latest recevied weather packets stored in our database for station/object DH8TOM-2. If no packets are shown the sender has not sent any weather packets the latest 1 day(s).
| Time | Temp. | Humidity | Pressure | Rain* | Wind** | Luminosity | Snow |
|---|---|---|---|---|---|---|---|
| 1778079470 | 13.33° C | 90% | 1004.4 hPa | 2.79 mm | - | - | - |
| 1778078266 | 13.33° C | 89% | 1004.3 hPa | 1.52 mm | - | - | - |
| 1778077965 | 13.33° C | 89% | 1004.3 hPa | 1.52 mm | - | - | - |
| 1778077363 | 13.33° C | 90% | 1004.2 hPa | 1.78 mm | - | - | - |
| 1778074955 | 13.33° C | 88% | 1004 hPa | 1.27 mm | - | - | - |
| 1778074654 | 13.33° C | 86% | 1003.9 hPa | 1.02 mm | - | - | - |
| 1778074353 | 13.33° C | 86% | 1003.9 hPa | 1.02 mm | - | - | - |
| 1778073450 | 13.89° C | 84% | 1003.7 hPa | 0 mm | - | - | - |
| 1778071343 | 13.89° C | 83% | 1003.2 hPa | 1.02 mm | - | - | - |
| 1778071042 | 14.44° C | 83% | 1003.3 hPa | 1.02 mm | - | - | - |
| 1778070743 | 14.44° C | 83% | 1003.3 hPa | 1.02 mm | - | - | - |
| 1778068935 | 15° C | 79% | 1003.3 hPa | 0.76 mm | - | - | - |
| 1778068634 | 15.56° C | 78% | 1003.4 hPa | 0.25 mm | - | - | - |
| 1778067430 | 16.11° C | 76% | 1003.3 hPa | 0 mm | - | - | - |
| 1778067129 | 16.67° C | 72% | 1003.3 hPa | 0 mm | - | - | - |
| 1778066828 | 16.67° C | 72% | 1003.3 hPa | 0 mm | - | - | - |
| 1778066226 | 16.67° C | 72% | 1003.3 hPa | 0 mm | - | - | - |
| 1778065925 | 17.22° C | 70% | 1003.3 hPa | 0 mm | - | - | - |
| 1778065624 | 17.22° C | 70% | 1003.3 hPa | 0 mm | - | - | - |
| 1778065323 | 17.22° C | 69% | 1003.2 hPa | 0 mm | - | - | - |
| 1778064420 | 17.22° C | 67% | 1003.3 hPa | 0 mm | - | - | - |
| 1778064119 | 17.78° C | 67% | 1003.4 hPa | 0 mm | - | - | - |
| 1778063818 | 17.78° C | 67% | 1003.4 hPa | 0 mm | - | - | - |
| 1778062614 | 17.78° C | 72% | 1003.7 hPa | 0 mm | - | - | - |
| 1778061410 | 17.78° C | 75% | 1003.8 hPa | 0 mm | - | - | - |
* Rain latest hour (hover to see other rain measurements)
** Current wind speed in m/s (hover to see current wind gust speed)